When you browse on this site, cookies collect data to enhance your experience and personalize the content and advertising you see.
Visit our Privacy Policy to learn more. By continuing to use the site, you agree to this use of cookies and data.
  • In France
  • List of Countries
  • For 7 days
  • Water Temperature
  • Satellite Maps
  • Weather Map
  • Weather Widgets
  • user-avatar
    Login

    Hourly Weather Nzérékoré

    Today, 21 July, Sunday

    Time Temperature Precipitation Wind Pressure Humidity
    00:00 +24°C° 0 mm 3 mps 747 mmHg 94%
    01:00 +24°C° 0 mm 3 mps 747 mmHg 95%
    02:00 +24°C° 0 mm 2 mps 746 mmHg 96%
    03:00 +24°C° 0 mm 2 mps 746 mmHg 97%
    04:00 +23°C° 0 mm 2 mps 746 mmHg 98%
    05:00 +23°C° 0 mm 2 mps 746 mmHg 98%
    06:00 +23°C° 0 mm 2 mps 746 mmHg 97%
    07:00 +24°C° 0 mm 2 mps 747 mmHg 97%
    08:00 +25°C° 0 mm 2 mps 747 mmHg 93%
    09:00 +26°C° 0 mm 2 mps 747 mmHg 88%
    10:00 +27°C° 0 mm 2 mps 747 mmHg 83%
    11:00 +28°C° 0.3 mm 2 mps 747 mmHg 79%
    12:00 +29°C° 0.3 mm 2 mps 746 mmHg 76%
    13:00 +30°C° 0.3 mm 2 mps 746 mmHg 72%
    14:00 +30°C° 0.4 mm 2 mps 745 mmHg 73%
    15:00 +30°C° 0.4 mm 2 mps 744 mmHg 73%
    16:00 +30°C° 0.4 mm 2 mps 742 mmHg 74%
    17:00 +29°C° 0.7 mm 1 mps 743 mmHg 79%
    18:00 +28°C° 0.7 mm 1 mps 744 mmHg 85%
    19:00 +27°C° 0.7 mm 1 mps 744 mmHg 90%
    20:00 +26°C° 0.4 mm 2 mps 745 mmHg 91%
    21:00 +26°C° 0.4 mm 2 mps 745 mmHg 93%
    22:00 +25°C° 0.4 mm 2 mps 745 mmHg 94%
    23:00 +25°C° 0.3 mm 3 mps 745 mmHg 94%

    Tomorrow, 22 July, Monday

    Time Temperature Precipitation Wind Pressure Humidity
    00:00 +25°C° 0.3 mm 3 mps 745 mmHg 94%
    01:00 +24°C° 0.3 mm 3 mps 745 mmHg 94%
    02:00 +24°C° 0.1 mm 3 mps 745 mmHg 95%
    03:00 +24°C° 0.1 mm 3 mps 745 mmHg 95%
    04:00 +24°C° 0.1 mm 3 mps 745 mmHg 96%
    05:00 +24°C° 0.2 mm 2 mps 745 mmHg 96%
    06:00 +24°C° 0.2 mm 2 mps 745 mmHg 96%
    07:00 +24°C° 0.2 mm 2 mps 745 mmHg 96%
    08:00 +25°C° 0.1 mm 2 mps 746 mmHg 93%
    09:00 +25°C° 0.1 mm 3 mps 746 mmHg 90%
    10:00 +26°C° 0.1 mm 3 mps 747 mmHg 86%
    11:00 +27°C° 0.4 mm 3 mps 746 mmHg 85%
    12:00 +27°C° 0.4 mm 3 mps 745 mmHg 84%
    13:00 +28°C° 0.4 mm 3 mps 745 mmHg 84%
    14:00 +27°C° 1.2 mm 3 mps 744 mmHg 86%
    15:00 +27°C° 1.2 mm 2 mps 744 mmHg 88%
    16:00 +27°C° 1.2 mm 2 mps 743 mmHg 90%
    17:00 +26°C° 1.9 mm 3 mps 744 mmHg 91%
    18:00 +25°C° 1.9 mm 3 mps 744 mmHg 93%
    19:00 +25°C° 1.9 mm 3 mps 745 mmHg 95%
    20:00 +24°C° 0.4 mm 3 mps 745 mmHg 95%
    21:00 +24°C° 0.4 mm 3 mps 745 mmHg 96%
    22:00 +24°C° 0.4 mm 3 mps 746 mmHg 96%
    23:00 +24°C° 1.9 mm 3 mps 746 mmHg 96%

    Day after tomorrow, 23 July, Tuesday

    Time Temperature Precipitation Wind Pressure Humidity
    00:00 +24°C° 1.9 mm 3 mps 746 mmHg 97%
    01:00 +24°C° 1.9 mm 3 mps 745 mmHg 97%
    02:00 +24°C° 1.5 mm 3 mps 745 mmHg 97%
    03:00 +24°C° 1.5 mm 3 mps 745 mmHg 97%
    04:00 +24°C° 1.5 mm 2 mps 745 mmHg 97%
    05:00 +24°C° 1.6 mm 2 mps 745 mmHg 97%
    06:00 +24°C° 1.6 mm 2 mps 745 mmHg 98%
    07:00 +23°C° 1.6 mm 2 mps 746 mmHg 98%
    08:00 +24°C° 2.6 mm 2 mps 746 mmHg 97%
    09:00 +24°C° 2.6 mm 2 mps 746 mmHg 97%
    10:00 +24°C° 2.6 mm 2 mps 747 mmHg 97%
    11:00 +25°C° 0.7 mm 3 mps 746 mmHg 94%
    12:00 +25°C° 0.7 mm 3 mps 746 mmHg 92%
    13:00 +26°C° 0.7 mm 3 mps 746 mmHg 89%
    14:00 +27°C° 0.4 mm 3 mps 745 mmHg 87%
    15:00 +27°C° 0.4 mm 3 mps 744 mmHg 85%
    16:00 +28°C° 0.4 mm 3 mps 744 mmHg 83%
    17:00 +27°C° 0.7 mm 2 mps 744 mmHg 86%
    18:00 +26°C° 0.7 mm 2 mps 744 mmHg 90%
    19:00 +25°C° 0.7 mm 2 mps 745 mmHg 94%
    20:00 +25°C° 1.1 mm 2 mps 745 mmHg 94%
    21:00 +25°C° 1.1 mm 2 mps 746 mmHg 94%
    22:00 +25°C° 1.1 mm 2 mps 746 mmHg 94%
    23:00 +24°C° 0.9 mm 2 mps 746 mmHg 95%

    24 July, Wednesday

    Time Temperature Precipitation Wind Pressure Humidity
    00:00 +24°C° 0.9 mm 2 mps 746 mmHg 96%
    01:00 +24°C° 0.9 mm 2 mps 746 mmHg 97%
    02:00 +24°C° 0.3 mm 2 mps 746 mmHg 97%
    03:00 +24°C° 0.3 mm 2 mps 745 mmHg 97%
    04:00 +24°C° 0.3 mm 1 mps 745 mmHg 97%
    05:00 +24°C° 0.2 mm 1 mps 746 mmHg 97%
    06:00 +24°C° 0.2 mm 1 mps 746 mmHg 97%
    07:00 +24°C° 0.2 mm 1 mps 746 mmHg 97%
    08:00 +24°C° 0.7 mm 1 mps 747 mmHg 97%
    09:00 +24°C° 0.7 mm 1 mps 747 mmHg 97%
    10:00 +24°C° 0.7 mm 1 mps 747 mmHg 97%
    11:00 +25°C° 0.6 mm 2 mps 747 mmHg 95%
    12:00 +25°C° 0.6 mm 2 mps 746 mmHg 94%
    13:00 +26°C° 0.6 mm 2 mps 746 mmHg 92%
    14:00 +26°C° 0.1 mm 1 mps 745 mmHg 90%
    15:00 +27°C° 0.1 mm 1 mps 745 mmHg 88%
    16:00 +27°C° 0.1 mm 1 mps 744 mmHg 86%
    17:00 +26°C° 0 mm 1 mps 744 mmHg 88%
    18:00 +26°C° 0 mm 1 mps 744 mmHg 91%
    19:00 +25°C° 0 mm 1 mps 744 mmHg 93%
    20:00 +25°C° 0 mm 1 mps 745 mmHg 94%
    21:00 +25°C° 0 mm 1 mps 745 mmHg 95%
    22:00 +24°C° 0 mm 1 mps 746 mmHg 95%
    23:00 +24°C° 0 mm 1 mps 745 mmHg 95%

    25 July, Thursday

    Time Temperature Precipitation Wind Pressure Humidity
    00:00 +24°C° 0 mm 1 mps 745 mmHg 96%
    01:00 +24°C° 0 mm 1 mps 745 mmHg 96%
    02:00 +24°C° 0 mm 1 mps 745 mmHg 96%
    03:00 +24°C° 0 mm 1 mps 745 mmHg 96%
    04:00 +24°C° 0 mm 1 mps 745 mmHg 96%
    05:00 +24°C° 0 mm 1 mps 745 mmHg 95%
    06:00 +24°C° 0 mm 1 mps 745 mmHg 95%
    07:00 +25°C° 0 mm 1 mps 745 mmHg 94%
    08:00 +26°C° 0.1 mm 2 mps 746 mmHg 91%
    09:00 +27°C° 0.1 mm 3 mps 746 mmHg 88%
    10:00 +28°C° 0.1 mm 3 mps 746 mmHg 85%
    11:00 +28°C° 0.3 mm 3 mps 745 mmHg 82%
    12:00 +29°C° 0.3 mm 3 mps 745 mmHg 79%
    13:00 +30°C° 0.3 mm 3 mps 744 mmHg 76%
    14:00 +30°C° 1.4 mm 3 mps 744 mmHg 78%
    15:00 +30°C° 1.4 mm 2 mps 743 mmHg 80%
    16:00 +30°C° 1.4 mm 2 mps 742 mmHg 81%
    17:00 +29°C° 0.8 mm 2 mps 743 mmHg 85%
    18:00 +28°C° 0.8 mm 2 mps 743 mmHg 89%
    19:00 +27°C° 0.8 mm 1 mps 743 mmHg 92%
    20:00 +26°C° 0.2 mm 1 mps 744 mmHg 93%
    21:00 +26°C° 0.2 mm 2 mps 744 mmHg 94%
    22:00 +25°C° 0.2 mm 2 mps 745 mmHg 95%
    23:00 +25°C° 0.6 mm 2 mps 745 mmHg 96%

    26 July, Friday

    Time Temperature Precipitation Wind Pressure Humidity
    00:00 +25°C° 0.6 mm 2 mps 745 mmHg 96%
    01:00 +25°C° 0.6 mm 2 mps 745 mmHg 97%
    02:00 +25°C° 0.1 mm 2 mps 745 mmHg 97%
    03:00 +24°C° 0.1 mm 2 mps 745 mmHg 97%
    04:00 +24°C° 0.1 mm 3 mps 745 mmHg 97%
    05:00 +24°C° 0 mm 2 mps 745 mmHg 97%
    06:00 +24°C° 0 mm 2 mps 745 mmHg 97%
    07:00 +24°C° 0 mm 2 mps 746 mmHg 96%
    08:00 +25°C° 0 mm 2 mps 746 mmHg 94%
    09:00 +25°C° 0 mm 2 mps 746 mmHg 91%
    10:00 +26°C° 0 mm 2 mps 747 mmHg 89%
    11:00 +27°C° 0.3 mm 2 mps 746 mmHg 86%
    12:00 +28°C° 0.3 mm 2 mps 746 mmHg 83%
    13:00 +29°C° 0.3 mm 2 mps 745 mmHg 80%
    14:00 +29°C° 1.4 mm 2 mps 744 mmHg 80%
    15:00 +29°C° 1.4 mm 1 mps 744 mmHg 80%
    16:00 +29°C° 1.4 mm 1 mps 743 mmHg 80%
    17:00 +28°C° 0.2 mm 1 mps 743 mmHg 84%
    18:00 +28°C° 0.2 mm 1 mps 743 mmHg 87%
    19:00 +27°C° 0.2 mm 1 mps 743 mmHg 91%
    20:00 +26°C° 0.3 mm 2 mps 744 mmHg 92%
    21:00 +26°C° 0.3 mm 2 mps 744 mmHg 92%
    22:00 +26°C° 0.3 mm 3 mps 745 mmHg 93%
    23:00 +25°C° 0.1 mm 3 mps 745 mmHg 93%
    Show more